sat.trackr.live / text

‹ back to catalog

STARLINK-32482

NORAD 62141 · 2024-224C

PAYLOAD ACTIVE UNKNOWN

§ Identity

Operator
Country
US
Launch date
2024-11-30
Launch site
AFETR
Launch vehicle
Mass (kg)
RCS (m²)

Purposes: comms

External: N2YO · Heavens-Above · Gunter

§ Orbital elements

Epoch: 2026-09-21T19:01:38.295840Z

Period
94.27 min
Inclination
43.0020°
Eccentricity
0.0000975
Mean motion
15.27592064 rev/d
Perigee alt
482.3 km
Apogee alt
483.7 km
Semi-major
6,861.1 km
B*
6.3375e-4
RAAN
130.4255°
Arg perigee
298.0094°
Mean anomaly
62.0659°
Rev number
10,231

§ Raw data

STARLINK-324821 62141U 24224C   26264.79280435  .00017224  00000+0  63375-3 0  99982 62141  43.0020 130.4255 0000975 298.0094  62.0659 15.27592064102314

JSON: /api/v1/satellites/62141 · /tle

For live sub-satellite position, see the globe view (requires WebGL).

§ Visibility from observer

Set your observer location to see the next 7 days of passes ≥ 10°. The values pass through the URL so the page stays shareable.

No JS? Fill the form by hand. The geolocation button needs JavaScript.